Spokane, WA
on Tuesday, November 13, 2012

Tuesday
Previous Day Next Day
Daily Summary
 ActualAverageRecord
Temperature
Mean Temperature °F 37°F  
Max Temperature 38°F 43°F 60°F (1999)
Min Temperature 34°F 31°F -2°F (1959)
Degree Days
Heating Degree Days 29 28  
Month to date heating degree days 323 339  
Since 1 July heating degree days 929 1127  
Cooling Degree Days 0 0  
Month to date cooling degree days 0 0  
Year to date cooling degree days 535 450  
Moisture
Dew Point 35°F   
Average Humidity 93    
Maximum Humidity 100    
Minimum Humidity 85    
Precipitation
Precipitation T in 0.08 in 0.73 in (1897)
Month to date precipitation 1.15 0.92  
Year to date precipitation 16.65 12.88  
Snow
Snow 0.00 in 0.30 in 6.90 in (1911)
Month to date snowfall 5.9 1.7  
Since 1 July snowfall 5.9 1.8  
Since 1 September snowfall 5.9 1.8  
Snow Depth 1.00 in   
Wind
Wind Speed 4 mph   
Max Wind Speed 10 mph   
Max Gust Speed 13 mph   
Visibility 7 miles   
Events Fog   

Key: T is trace of precipitation, MM is missing value
Source: NWS Daily Summary
Time(PST)TemperatureDew PointHumidity Pressure Visibility Wind DirectionWind SpeedGust SpeedPrecipitationEvents Conditions
12:53 AM 34.0°F 34.0°F 100% 30.29 in 0.8 miles Calm Calm - N/A   Overcast
1:53 AM 34.0°F 34.0°F 100% 30.29 in 0.8 miles Calm Calm - N/A   Overcast
2:53 AM 34.0°F 34.0°F 100% 30.29 in 0.8 miles Calm Calm - N/A   Overcast
3:53 AM 34.0°F 34.0°F 100% 30.29 in 0.8 miles Calm Calm - N/A   Overcast
4:53 AM 34.0°F 34.0°F 100% 30.28 in 1.5 miles SSE 8.1 mph - N/A   Overcast
5:37 AM 35.6°F 35.6°F 100% 30.22 in 10.0 miles SSE 6.9 mph - N/A   Overcast
5:53 AM 35.1°F 35.1°F 100% 30.28 in 10.0 miles SSE 6.9 mph - N/A   Overcast
6:53 AM 35.1°F 35.1°F 100% 30.28 in 6.0 miles SSE 8.1 mph - N/A   Overcast
6:57 AM 35.6°F 35.6°F 100% 30.22 in 2.0 miles SSE 8.1 mph - 0.00 in   Light Drizzle
7:53 AM 35.1°F 35.1°F 100% 30.28 in 0.8 miles SE 6.9 mph - 0.00 in   Light Drizzle
8:09 AM 35.6°F 35.6°F 100% 30.22 in 2.0 miles SSE 8.1 mph - 0.00 in   Overcast
8:42 AM 35.6°F 35.6°F 100% 30.23 in 2.0 miles SSE 6.9 mph - 0.00 in   Overcast
8:53 AM 36.0°F 36.0°F 100% 30.28 in 5.0 miles SE 5.8 mph - 0.00 in   Overcast
9:31 AM 35.6°F 35.6°F 100% 30.22 in 6.0 miles SSE 6.9 mph - N/A   Overcast
9:53 AM 36.0°F 35.1°F 97% 30.28 in 9.0 miles SSE 6.9 mph - N/A Fog Patches of Fog
10:53 AM 37.0°F 35.1°F 93% 30.27 in 10.0 miles SE 5.8 mph - N/A   Overcast
11:53 AM 37.0°F 35.1°F 93% 30.25 in 10.0 miles SSE 3.5 mph - N/A   Overcast
12:53 PM 37.9°F 35.1°F 89% 30.24 in 10.0 miles SSE 5.8 mph - N/A   Overcast
1:53 PM 37.9°F 35.1°F 89% 30.22 in 10.0 miles SSE 6.9 mph - N/A   Overcast
2:19 PM 37.4°F 35.6°F 93% 30.17 in 10.0 miles SSE 6.9 mph - N/A   Overcast
2:53 PM 37.9°F 36.0°F 93% 30.22 in 10.0 miles SSE 5.8 mph - N/A   Overcast
3:53 PM 37.9°F 36.0°F 93% 30.22 in 10.0 miles SE 6.9 mph - N/A   Overcast
4:38 PM 37.4°F 35.6°F 93% 30.16 in 10.0 miles SE 6.9 mph - N/A   Overcast
4:53 PM 37.0°F 35.1°F 93% 30.21 in 10.0 miles SE 6.9 mph - N/A   Overcast
5:53 PM 37.0°F 35.1°F 93% 30.21 in 10.0 miles SE 4.6 mph - N/A   Overcast
6:53 PM 36.0°F 35.1°F 97% 30.20 in 10.0 miles SE 3.5 mph - N/A   Overcast
7:53 PM 37.0°F 35.1°F 93% 30.20 in 10.0 miles Calm Calm - N/A   Overcast
8:53 PM 36.0°F 34.0°F 93% 30.20 in 10.0 miles Calm Calm - N/A   Mostly Cloudy
9:53 PM 37.0°F 34.0°F 89% 30.19 in 10.0 miles Calm Calm - N/A   Overcast
10:53 PM 37.0°F 34.0°F 89% 30.19 in 10.0 miles Calm Calm - N/A   Overcast
11:53 PM 36.0°F 34.0°F 93% 30.19 in 10.0 miles Calm Calm - 0.00 in   Overcast
Moon Phase
Nov. 13 Nov. 13 Nov. 20 Nov. 28 Dec. 06
Sunrise:06:53 AM (PST) Moon Rise:06:38 AM (PST)11/13
Sunset:04:15 PM (PST) Moon Set:04:09 PM (PST)11/13

Copyright © 2014 The Weather Underground, Inc.